When you browse on this site, cookies collect data to enhance your experience and personalize the content and advertising you see.
Visit our Privacy Policy to learn more. By continuing to use the site, you agree to this use of cookies and data.
  • In Hungary
  • List of Countries
  • For 7 days
  • Water Temperature
  • Weather Map
  • News
  • Weather Widgets
  • user-avatar
    Login

    Hourly Weather Podole

    Today, 20 August, Tuesday

    Time Temperature Precipitation Wind Pressure Humidity
    00:00 +20°C° 0 mm 1 mps 750 mmHg 83%
    01:00 +20°C° 0 mm 1 mps 751 mmHg 87%
    02:00 +20°C° 0 mm 1 mps 751 mmHg 86%
    03:00 +20°C° 0 mm 1 mps 751 mmHg 85%
    04:00 +19°C° 0 mm 1 mps 751 mmHg 84%
    05:00 +20°C° 0 mm 1 mps 751 mmHg 81%
    06:00 +21°C° 0 mm 1 mps 751 mmHg 78%
    07:00 +21°C° 0 mm 1 mps 752 mmHg 73%
    08:00 +22°C° 0 mm 1 mps 752 mmHg 66%
    09:00 +24°C° 0 mm 1 mps 752 mmHg 58%
    10:00 +25°C° 0 mm 1 mps 752 mmHg 50%
    11:00 +26°C° 0 mm 2 mps 752 mmHg 47%
    12:00 +26°C° 0 mm 2 mps 752 mmHg 45%
    13:00 +27°C° 0 mm 2 mps 752 mmHg 41%
    14:00 +27°C° 0 mm 3 mps 752 mmHg 43%
    15:00 +27°C° 0 mm 3 mps 751 mmHg 44%
    16:00 +27°C° 0 mm 3 mps 751 mmHg 45%
    17:00 +25°C° 0 mm 3 mps 751 mmHg 48%
    18:00 +24°C° 0 mm 3 mps 751 mmHg 51%
    19:00 +22°C° 0 mm 4 mps 751 mmHg 55%
    20:00 +21°C° 0.7 mm 4 mps 751 mmHg 61%
    21:00 +20°C° 0.7 mm 4 mps 751 mmHg 68%
    22:00 +19°C° 0.7 mm 4 mps 750 mmHg 74%
    23:00 +17°C° 1.3 mm 5 mps 750 mmHg 79%

    Tomorrow, 21 August, Wednesday

    Time Temperature Precipitation Wind Pressure Humidity
    00:00 +17°C° 1.3 mm 5 mps 750 mmHg 84%
    01:00 +16°C° 1.3 mm 6 mps 750 mmHg 89%
    02:00 +16°C° 0.8 mm 6 mps 750 mmHg 90%
    03:00 +16°C° 0.8 mm 6 mps 750 mmHg 92%
    04:00 +15°C° 0.8 mm 6 mps 750 mmHg 93%
    05:00 +15°C° 0.3 mm 6 mps 751 mmHg 92%
    06:00 +15°C° 0.3 mm 6 mps 751 mmHg 90%
    07:00 +15°C° 0.3 mm 6 mps 752 mmHg 89%
    08:00 +15°C° 0.1 mm 6 mps 753 mmHg 87%
    09:00 +15°C° 0.1 mm 6 mps 753 mmHg 86%
    10:00 +15°C° 0.1 mm 5 mps 754 mmHg 84%
    11:00 +16°C° 0 mm 5 mps 754 mmHg 79%
    12:00 +18°C° 0 mm 4 mps 755 mmHg 74%
    13:00 +19°C° 0 mm 4 mps 755 mmHg 69%
    14:00 +20°C° 0 mm 3 mps 755 mmHg 67%
    15:00 +20°C° 0 mm 3 mps 755 mmHg 65%
    16:00 +20°C° 0 mm 2 mps 755 mmHg 62%
    17:00 +19°C° 0 mm 2 mps 755 mmHg 66%
    18:00 +19°C° 0 mm 1 mps 755 mmHg 70%
    19:00 +18°C° 0 mm 1 mps 755 mmHg 74%
    20:00 +18°C° 0 mm 1 mps 756 mmHg 77%
    21:00 +16°C° 0 mm 1 mps 756 mmHg 79%
    22:00 +16°C° 0 mm 1 mps 756 mmHg 81%
    23:00 +15°C° 0 mm 1 mps 756 mmHg 82%

    Day after tomorrow, 22 August, Thursday

    Time Temperature Precipitation Wind Pressure Humidity
    00:00 +15°C° 0 mm 1 mps 756 mmHg 84%
    01:00 +15°C° 0 mm 1 mps 757 mmHg 85%
    02:00 +13°C° 0 mm 0 mps 757 mmHg 86%
    03:00 +13°C° 0 mm 0 mps 756 mmHg 87%
    04:00 +13°C° 0 mm 0 mps 756 mmHg 88%
    05:00 +14°C° 0 mm 0 mps 757 mmHg 85%
    06:00 +16°C° 0 mm 1 mps 757 mmHg 81%
    07:00 +18°C° 0 mm 1 mps 757 mmHg 77%
    08:00 +19°C° 0 mm 1 mps 757 mmHg 72%
    09:00 +19°C° 0 mm 2 mps 757 mmHg 67%
    10:00 +21°C° 0 mm 2 mps 757 mmHg 62%
    11:00 +21°C° 0 mm 2 mps 757 mmHg 59%
    12:00 +22°C° 0 mm 3 mps 756 mmHg 55%
    13:00 +24°C° 0 mm 3 mps 756 mmHg 51%
    14:00 +24°C° 0 mm 3 mps 756 mmHg 50%
    15:00 +24°C° 0 mm 3 mps 756 mmHg 49%
    16:00 +24°C° 0 mm 3 mps 755 mmHg 48%
    17:00 +23°C° 0 mm 2 mps 755 mmHg 53%
    18:00 +20°C° 0 mm 2 mps 755 mmHg 57%
    19:00 +19°C° 0 mm 2 mps 755 mmHg 62%
    20:00 +18°C° 0 mm 2 mps 756 mmHg 64%
    21:00 +17°C° 0 mm 2 mps 756 mmHg 66%
    22:00 +17°C° 0 mm 2 mps 756 mmHg 68%
    23:00 +16°C° 0 mm 2 mps 756 mmHg 70%

    23 August, Friday

    Time Temperature Precipitation Wind Pressure Humidity
    00:00 +16°C° 0 mm 2 mps 756 mmHg 72%
    01:00 +15°C° 0 mm 2 mps 756 mmHg 73%
    02:00 +15°C° 0 mm 2 mps 756 mmHg 75%
    03:00 +15°C° 0 mm 2 mps 756 mmHg 76%
    04:00 +14°C° 0 mm 2 mps 756 mmHg 77%
    05:00 +15°C° 0 mm 2 mps 756 mmHg 74%
    06:00 +16°C° 0 mm 2 mps 756 mmHg 72%
    07:00 +17°C° 0 mm 2 mps 756 mmHg 69%
    08:00 +19°C° 0 mm 3 mps 756 mmHg 62%
    09:00 +21°C° 0 mm 3 mps 757 mmHg 56%
    10:00 +22°C° 0 mm 3 mps 757 mmHg 50%
    11:00 +24°C° 0 mm 3 mps 756 mmHg 46%
    12:00 +25°C° 0 mm 3 mps 756 mmHg 42%
    13:00 +26°C° 0 mm 3 mps 756 mmHg 38%
    14:00 +26°C° 0 mm 3 mps 756 mmHg 39%
    15:00 +26°C° 0 mm 3 mps 755 mmHg 39%
    16:00 +26°C° 0 mm 3 mps 755 mmHg 39%
    17:00 +24°C° 0 mm 3 mps 755 mmHg 44%
    18:00 +22°C° 0 mm 3 mps 755 mmHg 49%
    19:00 +20°C° 0 mm 3 mps 755 mmHg 55%
    20:00 +19°C° 0 mm 3 mps 755 mmHg 57%
    21:00 +18°C° 0 mm 3 mps 755 mmHg 60%
    22:00 +18°C° 0 mm 3 mps 755 mmHg 62%
    23:00 +17°C° 0 mm 3 mps 755 mmHg 64%

    24 August, Saturday

    Time Temperature Precipitation Wind Pressure Humidity
    00:00 +17°C° 0 mm 3 mps 755 mmHg 66%
    01:00 +16°C° 0 mm 3 mps 755 mmHg 68%
    02:00 +16°C° 0 mm 3 mps 755 mmHg 71%
    03:00 +14°C° 0 mm 3 mps 754 mmHg 73%
    04:00 +14°C° 0 mm 3 mps 754 mmHg 76%
    05:00 +16°C° 0 mm 3 mps 754 mmHg 74%
    06:00 +17°C° 0 mm 3 mps 754 mmHg 71%
    07:00 +18°C° 0 mm 3 mps 754 mmHg 69%
    08:00 +20°C° 0 mm 4 mps 754 mmHg 62%
    09:00 +22°C° 0 mm 4 mps 754 mmHg 56%
    10:00 +25°C° 0 mm 4 mps 754 mmHg 50%
    11:00 +25°C° 0 mm 4 mps 754 mmHg 48%
    12:00 +26°C° 0 mm 4 mps 753 mmHg 45%
    13:00 +27°C° 0 mm 4 mps 753 mmHg 43%
    14:00 +27°C° 0 mm 4 mps 753 mmHg 44%
    15:00 +27°C° 0 mm 4 mps 752 mmHg 45%
    16:00 +27°C° 0 mm 3 mps 752 mmHg 45%
    17:00 +25°C° 0 mm 3 mps 752 mmHg 51%
    18:00 +24°C° 0 mm 3 mps 752 mmHg 56%
    19:00 +21°C° 0 mm 3 mps 752 mmHg 61%
    20:00 +20°C° 0 mm 3 mps 752 mmHg 64%
    21:00 +20°C° 0 mm 3 mps 752 mmHg 66%
    22:00 +19°C° 0 mm 3 mps 752 mmHg 69%
    23:00 +18°C° 0 mm 3 mps 752 mmHg 70%

    25 August, Sunday

    Time Temperature Precipitation Wind Pressure Humidity
    00:00 +18°C° 0 mm 3 mps 752 mmHg 71%
    01:00 +17°C° 0 mm 3 mps 752 mmHg 73%
    02:00 +17°C° 0 mm 3 mps 752 mmHg 73%
    03:00 +17°C° 0 mm 3 mps 752 mmHg 74%
    04:00 +17°C° 0 mm 3 mps 752 mmHg 75%
    05:00 +17°C° 0 mm 3 mps 752 mmHg 72%
    06:00 +18°C° 0 mm 4 mps 752 mmHg 68%
    07:00 +19°C° 0 mm 4 mps 752 mmHg 65%
    08:00 +20°C° 0 mm 4 mps 752 mmHg 61%
    09:00 +22°C° 0 mm 4 mps 752 mmHg 57%
    10:00 +25°C° 0 mm 5 mps 752 mmHg 53%
    11:00 +26°C° 0 mm 5 mps 752 mmHg 51%
    12:00 +27°C° 0 mm 5 mps 752 mmHg 48%
    13:00 +28°C° 0 mm 5 mps 752 mmHg 46%
    14:00 +28°C° 0 mm 4 mps 751 mmHg 47%
    15:00 +28°C° 0 mm 4 mps 751 mmHg 47%
    16:00 +28°C° 0 mm 4 mps 751 mmHg 48%
    17:00 +26°C° 0 mm 4 mps 751 mmHg 52%
    18:00 +25°C° 0 mm 4 mps 751 mmHg 57%
    19:00 +24°C° 0 mm 3 mps 751 mmHg 61%
    20:00 +22°C° 0 mm 3 mps 751 mmHg 64%
    21:00 +21°C° 0 mm 3 mps 751 mmHg 66%
    22:00 +21°C° 0 mm 3 mps 751 mmHg 68%
    23:00 +20°C° 0.1 mm 3 mps 751 mmHg 71%
    Show more